Flag for U.S.A. Weather past 2 weeks in Wilmington, Delaware, U.S.A.

Now
62 °F

Passing clouds.


Feels Like: 62 °F
Forecast: 62 / 73 °F
Wind: 6 mph from North

Location: New Castle County Airport

Current Time: Oct 1, 2014 at 5:37:24 AM

Latest Report: Oct 1, 2014 at 4:51 AM


Visibility: 10 mi

Pressure: 29.98 "Hg

Humidity: 90%

Dew point: 59 °F

Location of WilmingtonLocation

Historic Weather in Wilmington — Graph

°F

Wilmington temperature yesterday

Maximum temperature yesterday: 76 °F (at 3:51 PM)
Minimum temperature yesterday: 64 °F (at 3:51 AM)
Average temperature yesterday: 69 °F

Past Weeks' High & Low Weather Summary

 TemperatureHumidityPressure
High83 °F (Sep 27, 2:51 PM)97% (Sep 21, 3:59 AM)30.50 "Hg (Sep 21, 3:59 AM)
Low44 °F (Sep 23, 6:51 AM)39% (Sep 23, 2:51 PM)29.64 "Hg (Sep 21, 5:51 PM)
Average65 °F75%30.12 "Hg
* Reported Sep 16 3:51 AM — Oct 1 3:51 AM, Wilmington, Weather by CustomWeather, © 2014

Note: Actual official high and low records may vary slightly from our data, if they occured in-between our weather recording intervals... More about our weather records

Advertising

Wilmington weather history for previous 24 hours

 ConditionsComfort  
Time TempWeatherWind HumidityBarometerVisibility
3:51 AM
Oct 1
63 °FPassing clouds.8 mph87%29.97 "Hg10 mi
2:51 AM63 °FPassing clouds.6 mph90%29.98 "Hg10 mi
1:51 AM64 °FMostly cloudy.6 mph87%29.99 "Hg10 mi
12:51 AM65 °FPassing clouds.7 mph85%29.98 "Hg10 mi
11:51 PM
Sep 30
65 °FOvercast.5 mph85%29.97 "Hg10 mi
10:51 PM65 °FOvercast.7 mph85%29.97 "Hg10 mi
9:51 PM66 °FPartly cloudy.12 mph81%29.96 "Hg10 mi
8:51 PM68 °FPassing clouds.9 mph76%29.95 "Hg10 mi
7:51 PM70 °FOvercast.6 mph73%29.93 "Hg10 mi
6:51 PM71 °FSunny.9 mph68%29.89 "Hg10 mi
5:51 PM73 °FSunny.5 mph64%29.88 "Hg10 mi
4:51 PM75 °FSunny.3 mph60%29.88 "Hg10 mi
3:51 PM76 °FSunny.6 mph58%29.89 "Hg10 mi
2:51 PM75 °FSunny.5 mph60%29.90 "Hg10 mi
1:51 PM74 °FSunny.6 mph62%29.91 "Hg10 mi
12:51 PM73 °FSunny.5 mph64%29.93 "Hg10 mi
11:51 AM72 °FSunny.5 mph66%29.94 "Hg10 mi
10:51 AM70 °FSunny.6 mph66%29.94 "Hg10 mi
9:51 AM70 °FSunny.No wind73%29.95 "Hg10 mi
8:51 AM66 °FPassing clouds.6 mph90%29.95 "Hg10 mi
7:51 AM64 °FPassing clouds.No wind90%29.95 "Hg10 mi
6:51 AM64 °FPassing clouds.3 mph94%29.94 "Hg10 mi
5:51 AM64 °FLight rain. Fog.No wind97%29.93 "Hg4 mi
Weather by CustomWeather, © 2014

See weather overviewHow to use our weather pages